Location: Antioch Baptist Church
(32.6696°N, 85.7327°W)
Time: 11:40:55
(UTC+00:00)

Cosmos 1818 - Pass Details

Date: 14 July 2020
Orbit: 777 x 796 km, 65.0° (Epoch: 09 August)

Event Time Altitude Azimuth Distance (km) Brightness Sun altitude
Rises 09:45:40 0° 327° (NNW) 3,301 6.8 -11.7°
Reaches altitude 10° 09:48:07 10° 324° (NW) 2,367 6.0 -11.3°
Maximum altitude 09:53:29 61° 246° (WSW) 898 3.6 -10.3°
Drops below altitude 10° 09:58:47 10° 166° (SSE) 2,347 5.8 -9.4°
Sets 10:01:13 0° 163° (SSE) 3,270 6.6 -9.0°
